Location: Ferintosh
(52.7647°N, 112.9692°W)
Time: 15:19:27
(UTC+00:00)

Transit 2A - Pass Details

Date: 23 May 2024
Orbit: 593 x 959 km, 66.7° (Epoch: 14 June)

Event Time Altitude Azimuth Distance (km) Brightness Sun altitude
Rises 05:52:26 0° 196° (SSW) 2,931 - -13.6°
Reaches altitude 10° 05:54:41 10° 190° (S) 2,069 - -13.8°
Exits shadow 05:56:03 19° 182° (S) 1,585 7.1 -13.8°
Maximum altitude 05:59:07 44° 118° (ESE) 972 6.2 -14.0°
Drops below altitude 10° 06:04:02 10° 48° (NE) 2,294 8.7 -14.3°
Sets 06:06:39 0° 42° (NE) 3,290 9.7 -14.4°
